Ontario, OR

3:28 PM MDT on April 28, 2017 (GMT -0600)
Ontario Municipal

Weather History for KONO - May, 2013

Change the Weather History Date:

Monday, May 27, 2013

  Actual Average Record
Temperature  
Mean Temperature 56 °F 63 °F  
Max Temperature 69 °F 78 °F 96 °F (1958)
Min Temperature 42 °F 48 °F 33 °F (1954)
Degree Days  
Heating Degree Days 9 4  
Month to date heating degree days 106 193  
Since 1 July heating degree days 5627 5934  
Cooling Degree Days 0 2  
Month to date cooling degree days 47 27  
Year to date cooling degree days 47 28  
Growing Degree Days 6 (Base 50)    
Moisture  
Dew Point 45 °F    
Average Humidity 61    
Maximum Humidity 89    
Minimum Humidity 33    
Precipitation  
Precipitation 0.26 in 0.04 in 0.50 in (2004)
Month to date precipitation 0.32 1.11  
Year to date precipitation 1.73 4.90  
Sea Level Pressure  
Sea Level Pressure 29.93 in    
Wind  
Wind Speed 5 mph (South)    
Max Wind Speed 29 mph    
Max Gust Speed 117 mph    
Visibility 10 miles    
Events Rain    
T = Trace of Precipitation, MM = Missing Value Source: NWS Daily Summary

Daily Weather History Graph

Daily Weather History Graph

Search for Another Location

Airport or City:

Trip Planner

Search our weather history database for the weather conditions in past years. The results will help you decide how hot, cold, wet, or windy it might be!

Date:

Astronomy

May. 27, 2013 Rise Set
Actual Time 6:10 AM MDT 9:20 PM MDT
Civil Twilight 5:36 AM MDT 9:55 PM MDT
Nautical Twilight 4:51 AM MDT 10:40 PM MDT
Astronomical Twilight 3:56 AM MDT 11:34 PM MDT
Moon No Moon Rise 8:55 AM MDT (5/27)
Length of Visible Light 16h 18m
Length of Day
15h 09m
Waning Gibbous, 90% of the Moon is Illuminated
May 27
Waning Gibbous
May 31
Last Quarter
Jun 8
New
Jun 16
First Quarter
Jun 23
Full

Hourly Weather History & Observations

Time (MDT) Temp. Windchill Dew Point Humidity Pressure Visibility Wind Dir Wind Speed Gust Speed Precip Events Conditions
12:53 AM 52.0 °F - 44.1 °F 74% 29.98 in 10.0 mi SW 9.2 mph - N/A   Scattered Clouds
1:53 AM 51.1 °F - 43.0 °F 74% 29.99 in 10.0 mi West 3.5 mph - N/A   Clear
2:07 AM 50.0 °F - 42.8 °F 76% 30.00 in 10.0 mi North - - N/A   Clear
2:53 AM 50.0 °F - 41.0 °F 71% 30.01 in 10.0 mi West 6.9 mph - N/A   Clear
3:53 AM 48.9 °F - 42.1 °F 77% 30.00 in 10.0 mi WSW 8.1 mph - N/A   Clear
4:53 AM 45.0 °F 43.5 °F 39.9 °F 82% 30.01 in 10.0 mi South 3.5 mph - N/A   Clear
5:53 AM 44.1 °F 41.5 °F 39.0 °F 82% 30.01 in 10.0 mi SSE 4.6 mph - N/A   Clear
6:53 AM 43.0 °F - 39.0 °F 86% 30.02 in 10.0 mi Calm Calm - N/A   Clear
7:53 AM 48.9 °F - 39.9 °F 71% 30.02 in 10.0 mi Calm Calm - N/A   Clear
8:53 AM 53.1 °F - 42.1 °F 66% 30.01 in 10.0 mi Calm Calm - N/A   Clear
9:53 AM 57.0 °F - 42.1 °F 57% 29.99 in 10.0 mi Calm Calm - N/A   Clear
10:53 AM 62.1 °F - 44.1 °F 52% 29.96 in 10.0 mi Calm Calm - N/A   Clear
11:53 AM 66.0 °F - 42.1 °F 42% 29.94 in 10.0 mi SE 6.9 mph - N/A   Clear
12:53 PM 66.9 °F - 39.0 °F 36% 29.90 in 10.0 mi SE 8.1 mph - N/A   Partly Cloudy
1:53 PM 69.1 °F - 39.9 °F 35% 29.87 in 10.0 mi SSE 9.2 mph - N/A   Mostly Cloudy
2:53 PM 68.0 °F - 39.0 °F 35% 29.86 in 10.0 mi South 6.9 mph - N/A   Overcast
3:46 PM 60.8 °F - 48.2 °F 63% 29.88 in 10.0 mi SW 13.8 mph - 0.01 in Rain Light Rain
3:53 PM 60.1 °F - 48.9 °F 67% 29.89 in 10.0 mi WSW 16.1 mph 23.0 mph 0.01 in   Overcast
4:53 PM 61.0 °F - 48.9 °F 64% 29.89 in 10.0 mi WSW 11.5 mph - 0.00 in Rain Light Rain
5:53 PM 59.0 °F - 51.1 °F 75% 29.89 in 10.0 mi WSW 3.5 mph - 0.00 in Rain Light Rain
6:53 PM 59.0 °F - 51.1 °F 75% 29.88 in 10.0 mi SE 4.6 mph - 0.01 in   Overcast
7:53 PM 57.9 °F - 52.0 °F 81% 29.86 in 10.0 mi East 10.4 mph - 0.00 in   Overcast
8:53 PM 55.9 °F - 52.0 °F 87% 29.84 in 10.0 mi East 8.1 mph - 0.00 in   Mostly Cloudy
9:53 PM 55.0 °F - 51.1 °F 86% 29.84 in 10.0 mi ESE 4.6 mph - N/A   Overcast
10:53 PM 55.0 °F - 51.1 °F 86% 29.83 in 10.0 mi Calm Calm - N/A   Overcast
11:53 PM 55.0 °F - 50.0 °F 83% 29.82 in 10.0 mi Calm Calm - N/A   Overcast